Regional Weather Roundup
Issued by NWS

Home | Current Version | Previous Version | Text Only | Print | Product List | Glossary On
Versions: 1 2 3 4 5 6 7 8 9 10 11 12 13 14 15 16 17 18 19 20 21 22 23 24 25 26 27 28 29 30 31 32 33 34 35 36 37 38 39 40 41 42 43 44 45 46 47 48 49 50
000
ASUS43 KDTX 221301
RWRMI
MICHIGAN HOURLY REGIONAL WEATHER ROUNDUP
NATIONAL WEATHER SERVICE DETROIT/PONTIAC MI
800 AM EST SUN JAN 22 2017

NOTE: "FAIR" INDICATES FEW OR NO CLOUDS BELOW 12,000 FEET WITH NO
SIGNIFICANT WEATHER AND/OR OBSTRUCTION TO VISIBILITY.

MIZ047>049-052>055-059>063-066>070-074>076-081>083-221400-
SOUTHEAST LOWER MICHIGAN

CITY           SKY/WX    TMP DP  RH WIND       PRES   REMARKS
ADRIAN         FOG       38  38 100 NE5       29.62R VSB 1/4 WCI  34
ALMA           FOG       34  34  99 CALM      29.63R VSB 1/4
ANN ARBOR      FOG       42  42 100 CALM      29.62R VSB 1/2
BAD AXE        FOG       38  38 100 CALM      29.62S VSB 3/4
CARO           FOG       39  39  99 CALM      29.62R VSB 1/4
DETROIT CITY   FOG       41  41 100 CALM      29.62R VSB 1/4
DETROIT        FOG       41  41 100 W3        29.63R VSB 1/8
FLINT          FOG       39  39 100 CALM      29.62R VSB<1/4
GROSSE ILE     FOG       38  38  99 CALM      29.62R VSB 1/4
HILLSDALE      FOG       43  43 100 CALM      29.59S VSB 3/4
HOWELL         FOG       41  40  97 CALM      29.62R VSB<1/4

CITY           SKY/WX    TMP DP  RH WIND       PRES   REMARKS
JACKSON        FOG       43  42  97 CALM      29.60R VSB 1/4
LAMBERTVILLE   LGT RAIN  46  44  95 CALM      29.62S
LANSING        FOG       38  35  89 CALM      29.63R VSB 1/4
LAPEER         FOG       38  38 100 CALM      29.62R VSB 1/4
MASON          FOG       41  41 100 CALM      29.62R VSB<1/4
MONROE         LGT RAIN  40  40 100 CALM      29.62R VSB 1/2
PONTIAC        FOG       38  36  92 CALM      29.60R VSB 1/8
PORT HOPE        N/A     38  37  97 CALM      29.61R
PORT HURON     FOG       39  39 100 CALM      29.63R VSB 1/4
TRI CITIES     FOG       36  36 100 CALM      29.63R VSB 1/16
MIDLAND        FOG       38  38  97 CALM      29.62R VSB 1/4
TROY           FOG       40  38  95 CALM      29.64R VSB 1/2
SAGINAW HB     FOG       36  34  93 CALM      29.62S VSB 1/2
$$
MIZ043>046-050>051-056>058-064>065-071>073-077>080-221400-
SOUTHWEST LOWER MICHIGAN

CITY           SKY/WX    TMP DP  RH WIND       PRES   REMARKS
BATTLE CREEK   FOG       41  41 100 CALM      29.61R VSB 1/4
BENTON HARBOR  FOG       40  38  93 CALM      29.62R VSB 1/4
BIG RAPIDS     FOG       36  35  98 CALM      29.60R VSB 1/2
COLDWATER      FOG       38  38 100 CALM      29.60R VSB 1/4
FREMONT        FOG       37  37 100 CALM      29.61R VSB 1/4
HOLLAND        CLOUDY    41  40  96 CALM      29.61R
GRAND RAPIDS   FOG       35  33  92 CALM      29.61R VSB 1/4
IONIA          FOG       33  33 100 CALM      29.61R VSB<1/4
KALAMAZOO      FOG       39  37  92 CALM      29.61R VSB<1/4
LUDINGTON      FOG       38  38 100 CALM      29.60R VSB 1/4
MARSHALL       FOG       43  42  98 CALM      29.60R VSB 1/4
MOUNT PLEASANT FOG       36  36  99 CALM      29.62R VSB 1/2
MUSKEGON       CLOUDY    41  40  96 CALM      29.62R FOG
SOUTH HAVEN    FOG       39  39 100 CALM      29.62R VSB 1/4
$$
MIZ016>042-221400-
NORTHERN LOWER MICHIGAN

CITY           SKY/WX    TMP DP  RH WIND       PRES   REMARKS
ALPENA         CLOUDY    37  36  96 CALM      29.62R FOG
BEAVER ISLAND  FOG       37  37 100 CALM      29.60R VSB 1/4
BELLAIRE       FOG       35  35  99 CALM      29.62R VSB 1/4
CADILLAC       FOG       37  36  96 CALM      29.59R VSB 1/2
CHARLEVOIX     FOG       37  37 100 CALM      29.64R VSB 3/4
FRANKFORT      CLOUDY    38  38 100 CALM      29.60S FOG
GAYLORD        FOG       40  36  86 CALM      29.59R VSB 1/4
GRAYLING       FOG       36  36  99 CALM      29.61R VSB 1/4
HARBOR SPRINGS FOG       35  35 100 CALM      29.61R VSB 1/4
HOUGHTON LAKE  FOG       36  36 100 CALM      29.61R VSB 1/2
MANISTEE       FOG       36  36 100 CALM      29.60S VSB 3/4
OSCODA         FOG       38  37  97 CALM      29.62R VSB 3/4
PELLSTON       FOG       34  33  96 CALM      29.61R VSB 1/4
ROGERS CITY    FOG       36  35  96 CALM      29.62R VSB 3/4
TRAVERSE CITY  FOG       37  36  96 CALM      29.60R VSB 1/2
$$
MIZ007>008-015-221400-
EASTERN UPPER MICHIGAN

CITY           SKY/WX    TMP DP  RH WIND       PRES   REMARKS
KINROSS        FOG       34  34 100 E7        29.62R VSB 1/4 WCI  28
MACKINAC ISLAN FOG       35  35 100 E5        29.60S VSB 1/4 WCI  30
NEWBERRY       FOG       35  34  96 SE5       29.58S VSB 1/4 WCI  31
S. S. MARIE    CLOUDY    37  36  96 E5        29.62R FOG     WCI  33
MUNISING         N/A     36  36 100 CALM      29.57R
$$
MIZ004>006-011>014-085-221400-
CENTRAL UPPER MICHIGAN

CITY           SKY/WX    TMP DP  RH WIND       PRES   REMARKS
MANISTIQUE     FOG       33  32  97 E3        29.58R VSB 1/4
ESCANABA       CLOUDY    34  34 100 S6        29.59R FOG     WCI  29
SAWYER-GWINN   FOG       32  32 100 CALM      29.56R VSB 1
$$
MIZ001>003-009>011-084-221400-
WESTERN UPPER MICHIGAN

CITY           SKY/WX    TMP DP  RH WIND       PRES   REMARKS
IRON MOUNTAIN  CLOUDY    33  31  92 CALM      29.55R FOG
HOUGHTON       FOG       34  32  92 CALM      29.55R VSB 1
COPPER HARBOR    N/A     35  35 100 CALM      29.57R
IRONWOOD       FOG       33  33 100 W5        29.58R VSB 1/4 WCI  29
$$

ABBREVIATIONS USED IN REMARKS
   TC - TEMPERATURE IN CELSIUS
  WCI - WIND CHILL INDEX
   HX - HEAT INDEX
  VSB - VISIBILITY




USA.gov is the U.S. government's official web portal to all federal, state and local government web resources and services.